Location: Walnut Point State Park
(39.6958°N, 88.0345°W)
Time: 08:25:27
(UTC-06:00)

Amateur Radio Satellites - All Passes

Search period start: 23 November 2014 07:55
Search period end: 24 November 2014 07:55
Location: Walnut Point State Park, 39.6958°N, 88.0345°W

Satellite Date Start Highest point End Downlink Frequencies (MHz)
Time Altitude Azimuth
AIST 1 23 Nov 07:59:01 08:02:12 20° 273° (W) 08:05:21
CANX-2 23 Nov 08:04:02 08:07:31 24° 95° (E) 08:10:59 2200.000
AAUSAT CUBESAT 2 23 Nov 08:04:52 08:07:04 14° 92° (E) 08:09:17 437.432
DOVE 4 23 Nov 08:08:34 08:09:46 11° 91° (E) 08:10:59 437.250
COMPASS 1 23 Nov 08:17:00 08:20:19 22° 94° (E) 08:23:38 437.405
HO-68 23 Nov 08:18:57 08:25:42 42° 99° (E) 08:32:23 435.675
GONETS M04 23 Nov 08:21:08 08:29:54 80° 95° (E) 08:38:46
ANTELSAT 23 Nov 08:27:00 08:28:20 11° 63° (ENE) 08:29:41 437.575/2403.000
GOMX 1 23 Nov 08:33:59 08:37:40 30° 97° (E) 08:41:23 467.674
CUTE 1.7 & AOD 2 23 Nov 08:38:35 08:42:47 54° 100° (E) 08:46:59 437.475
BRITE-PL 23 Nov 08:46:24 08:50:31 61° 101° (E) 08:54:38 437.365/2234.400
POPSAT HIP 1 23 Nov 08:47:28 08:49:33 13° 64° (ENE) 08:51:38 437.405
BUGSAT 1 23 Nov 08:50:41 08:52:22 12° 63° (ENE) 08:54:02 437.445
UKube-1 23 Nov 08:51:56 08:55:12 21° 95° (E) 08:58:27 .
CUBEBUG 2 23 Nov 09:01:17 09:04:10 18° 94° (E) 09:07:03 437.445
Oscar 11 23 Nov 09:05:04 09:09:02 34° 97° (E) 09:12:58 145.826/435.025
CINEMA 3 23 Nov 09:05:32 09:09:17 31° 97° (E) 09:13:06 145.822/145.860
UWE-3 23 Nov 09:08:03 09:10:59 18° 94° (E) 09:13:56 435.000/436.395/437.385
SEEDS 23 Nov 09:15:38 09:19:52 65° 285° (WNW) 09:24:06 437.485
POLYITAN 1 23 Nov 09:17:16 09:20:55 28° 70° (ENE) 09:24:35 437.675
TIGRISAT 23 Nov 09:20:18 09:24:21 42° 72° (ENE) 09:28:22 435.000
QB50P2 23 Nov 09:20:27 09:24:12 31° 70° (ENE) 09:27:58 145.880/145.840
DX 1 23 Nov 09:23:37 09:27:50 48° 100° (E) 09:32:01 434.975-435.025
DUCHIFAT 1 23 Nov 09:28:22 09:32:17 37° 71° (ENE) 09:36:12 145.980
UNISAT 6 23 Nov 09:32:00 09:36:13 60° 74° (ENE) 09:40:25 437.425
AAUSAT CUBESAT 2 23 Nov 09:38:56 09:43:00 46° 287° (WNW) 09:47:02 437.432
CANX-2 23 Nov 09:39:46 09:43:25 28° 290° (WNW) 09:47:05 2200.000
VELOX 1 23 Nov 09:40:19 09:43:47 22° 95° (E) 09:47:14 145.980
DOVE 4 23 Nov 09:43:50 09:47:53 54° 286° (WNW) 09:52:01 437.250
NANOSAT C BR1 23 Nov 09:46:56 09:51:08 61° 74° (ENE) 09:55:20 145.865
ZACube-1 23 Nov 09:49:14 09:53:18 45° 99° (E) 09:57:24 437.345
COMPASS 1 23 Nov 09:52:22 09:56:03 29° 290° (WNW) 09:59:44 437.405
HUMSAT D 23 Nov 09:55:54 09:59:39 31° 97° (E) 10:03:23 437.325/437.525
QB50P1 23 Nov 09:56:19 10:00:35 79° 76° (ENE) 10:04:51 145.935-145.965
DELFI C3 23 Nov 09:59:37 10:03:43 64° 285° (WNW) 10:07:48 145.870
ANTELSAT 23 Nov 10:00:22 10:04:37 64° 259° (W) 10:08:52 437.575/2403.000
AISAT 23 Nov 10:04:04 10:08:16 41° 99° (E) 10:12:26 437.250
50 SAT 23 Nov 10:05:19 10:09:00 33° 97° (E) 10:12:42 437.505
HO-68 23 Nov 10:06:50 10:13:16 37° 296° (WNW) 10:19:39 435.675
GOMX 1 23 Nov 10:12:36 10:15:38 20° 292° (WNW) 10:18:42 467.674
CUTE 1.7 & AOD 2 23 Nov 10:16:10 10:18:15 13° 296° (WNW) 10:20:20 437.475
POPSAT HIP 1 23 Nov 10:20:50 10:25:00 53° 260° (W) 10:29:12 437.405
GONETS M04 23 Nov 10:21:25 10:27:45 22° 295° (WNW) 10:34:10
BUGSAT 1 23 Nov 10:23:08 10:27:21 61° 259° (W) 10:31:34 437.445
FUNcube-1 23 Nov 10:25:06 10:29:17 69° 285° (WNW) 10:33:32 145.935
UKube-1 23 Nov 10:27:32 10:31:25 33° 290° (WNW) 10:35:17 .
BRITE-PL 23 Nov 10:27:38 10:28:31 11° 297° (WNW) 10:29:24 437.365/2234.400
CUBEBUG 1 23 Nov 10:28:50 10:32:33 27° 96° (E) 10:36:14 437.445
CUBEBUG 2 23 Nov 10:37:07 10:40:59 36° 288° (WNW) 10:44:55 437.445
Oscar 11 23 Nov 10:41:45 10:44:58 21° 293° (WNW) 10:48:12 145.826/435.025
CINEMA 3 23 Nov 10:43:13 10:46:20 21° 292° (WNW) 10:49:30 145.822/145.860
UWE-3 23 Nov 10:43:47 10:47:38 35° 288° (WNW) 10:51:32 435.000/436.395/437.385
POLYITAN 1 23 Nov 10:53:26 10:56:51 23° 265° (W) 11:00:16 437.675
QB50P2 23 Nov 10:56:52 11:00:09 21° 265° (W) 11:03:26 145.880/145.840
TIGRISAT 23 Nov 10:58:49 11:01:18 15° 267° (W) 11:03:48 435.000
DX 1 23 Nov 11:01:08 11:03:40 15° 296° (WNW) 11:06:12 434.975-435.025
ESTCUBE 1 23 Nov 11:03:43 11:08:17 71° 102° (ESE) 11:12:47 437.505/2401.250
DUCHIFAT 1 23 Nov 11:05:23 11:08:17 18° 267° (W) 11:11:11 145.980
SHINDAISAT 23 Nov 11:05:32 11:06:09 11° 308° (NW) 11:06:47 437.305
UNISAT 6 23 Nov 11:12:22 11:13:23 11° 269° (W) 11:14:25 437.425
VELOX 1 23 Nov 11:16:29 11:20:24 31° 290° (WNW) 11:24:17 145.980
NANOSAT C BR1 23 Nov 11:26:27 11:27:23 11° 270° (W) 11:28:20 145.865
ZACube-1 23 Nov 11:26:54 11:29:19 15° 294° (WNW) 11:31:46 437.345
HUMSAT D 23 Nov 11:32:12 11:35:16 20° 292° (WNW) 11:38:20 437.325/437.525
50 SAT 23 Nov 11:41:17 11:44:06 18° 293° (WNW) 11:46:55 437.505
AISAT 23 Nov 11:41:37 11:44:35 18° 295° (WNW) 11:47:32 437.250
Oscar 19 23 Nov 11:50:34 11:55:03 32° 68° (ENE) 11:59:34 437.125/150
TISAT 1 23 Nov 12:04:11 12:08:25 81° 103° (ESE) 12:12:36 437.305
SPROUT 23 Nov 12:04:36 12:08:54 71° 102° (ESE) 12:13:09 437.525
CUBEBUG 1 23 Nov 12:05:14 12:08:51 26° 292° (WNW) 12:12:25 437.445
SO-50 23 Nov 12:09:41 12:13:57 30° 49° (NE) 12:18:15 436.795
BEESAT 23 Nov 12:13:12 12:15:45 14° 91° (E) 12:18:16 436.000
AUBIESAT-1 23 Nov 12:21:20 12:25:12 23° 98° (E) 12:28:59 437.475
M-CUBED/EXP-1 PRIME 23 Nov 12:24:13 12:28:22 27° 100° (E) 12:32:27 437.505
ITAMSAT 1 23 Nov 12:36:48 12:41:29 35° 68° (ENE) 12:46:12 435.822/435.867
ESTCUBE 1 23 Nov 12:42:55 12:44:32 12° 298° (WNW) 12:46:10 437.505/2401.250
YUBILEINY 23 Nov 12:43:20 12:51:05 34° 71° (ENE) 12:58:46 435.215
Gurwin Techsat 1B 23 Nov 12:52:07 12:56:34 28° 67° (ENE) 13:01:02 435.225
ITUPSAT 1 23 Nov 13:05:21 13:10:02 49° 100° (E) 13:14:39 437.325
CUSAT 1 23 Nov 13:07:21 13:10:15 80° 279° (W) 13:12:52 437.405
SWISSCUBE 23 Nov 13:17:24 13:22:13 73° 102° (ESE) 13:26:59 437.505
DANDE 23 Nov 13:20:17 13:23:18 63° 280° (W) 13:25:57 436.750
KKS-1 23 Nov 13:26:50 13:29:39 16° 93° (E) 13:32:27 437.445
Oscar 19 23 Nov 13:29:58 13:34:21 29° 264° (W) 13:38:46 437.125/150
AO-7 23 Nov 13:36:08 13:42:26 25° 55° (NE) 13:48:46 29.400- 29.500
HORYU 2 23 Nov 13:39:08 13:43:01 31° 69° (ENE) 13:46:55 437.375
SPROUT 23 Nov 13:43:39 13:44:22 10° 298° (WNW) 13:45:06 437.525
BEESAT 23 Nov 13:49:14 13:53:57 58° 287° (WNW) 13:58:37 436.000
SO-50 23 Nov 13:50:06 13:54:33 36° 246° (WSW) 13:59:00 436.795
AUBIESAT-1 23 Nov 13:55:39 14:00:16 42° 294° (WNW) 14:04:49 437.475
M-CUBED/EXP-1 PRIME 23 Nov 13:58:54 14:03:24 36° 295° (WNW) 14:07:51 437.505
ITAMSAT 1 23 Nov 14:16:35 14:20:59 27° 264° (W) 14:25:25 435.822/435.867
STARS 23 Nov 14:27:32 14:31:50 51° 100° (E) 14:36:06 437.465
Gurwin Techsat 1B 23 Nov 14:31:32 14:36:23 36° 263° (W) 14:41:15 435.225
MaSat-1 23 Nov 14:34:30 14:36:14 14° 108° (ESE) 14:37:53 437.345
YUBILEINY 23 Nov 14:39:50 14:48:06 50° 271° (W) 14:56:20 435.215
PHONESAT 2.4 23 Nov 14:40:59 14:43:26 17° 147° (SSE) 14:45:54 2401.200-2431.200
ITUPSAT 1 23 Nov 14:44:18 14:47:31 18° 296° (WNW) 14:50:43 437.325
JAS-2 23 Nov 14:50:37 14:56:13 23° 59° (ENE) 15:01:56 435.910
RS-15 23 Nov 14:51:31 15:00:23 29° 104° (ESE) 15:09:08 29.354- 29.394
SWISSCUBE 23 Nov 14:57:25 14:59:26 13° 299° (WNW) 15:01:27 437.505
KKS-1 23 Nov 15:02:17 15:06:29 43° 288° (WNW) 15:10:40 437.445
VERMONT LUNAR 23 Nov 15:02:45 15:05:58 30° 153° (SSE) 15:09:12 437.305
O/OREOS (USA 219) 23 Nov 15:13:31 15:17:08 24° 59° (ENE) 15:20:44 437.305
HORYU 2 23 Nov 15:16:12 15:19:42 23° 265° (W) 15:23:13 437.375
AO-7 23 Nov 15:26:07 15:34:23 76° 254° (WSW) 15:42:45 29.400- 29.500
MOZHAYETS 4 23 Nov 15:47:45 15:50:30 15° 91° (E) 15:53:14
STARS 23 Nov 16:05:28 16:07:53 15° 296° (WNW) 16:10:17 437.465
MaSat-1 23 Nov 16:08:19 16:10:43 21° 300° (WNW) 16:12:58 437.345
PHONESAT 2.4 23 Nov 16:18:09 16:21:49 61° 162° (SSE) 16:25:30 2401.200-2431.200
JAS-2 23 Nov 16:32:47 16:40:17 80° 257° (WSW) 16:48:13 435.910
Cubesat XI-IV 23 Nov 16:33:34 16:38:16 32° 67° (ENE) 16:42:59 437.490
VERMONT LUNAR 23 Nov 16:40:37 16:44:16 88° 169° (S) 16:47:55 437.305
O/OREOS (USA 219) 23 Nov 16:52:35 16:56:33 32° 256° (WSW) 17:00:31 437.305
RS-15 23 Nov 17:00:44 17:11:41 73° 305° (NW) 17:22:40 29.354- 29.394
CUTE-I 23 Nov 17:14:59 17:20:20 75° 74° (ENE) 17:25:42 437.470
CUBESAT XI-V 23 Nov 17:23:09 17:23:51 10° 89° (E) 17:24:33 437.345
MOZHAYETS 4 23 Nov 17:23:29 17:28:00 50° 287° (WNW) 17:32:29
AO-7 23 Nov 17:24:57 17:28:24 13° 272° (W) 17:31:54 29.400- 29.500
PHONESAT 2.4 23 Nov 17:56:54 18:00:38 77° 359° (N) 18:04:21 2401.200-2431.200
PRISM 23 Nov 17:58:12 18:02:27 72° 102° (ESE) 18:06:40 437.425
Cubesat XI-IV 23 Nov 18:13:33 18:18:17 32° 263° (W) 18:23:03 437.490
VERMONT LUNAR 23 Nov 18:19:12 18:22:50 81° 6° (N) 18:26:29 437.305
JAS-2 23 Nov 18:22:35 18:26:24 14° 275° (W) 18:30:18 435.910
STRAND 1 23 Nov 18:23:23 18:28:17 45° 99° (E) 18:33:08 437.568
GONETS M04 23 Nov 18:32:52 18:40:59 38° 73° (ENE) 18:48:59
HO-68 23 Nov 18:47:11 18:53:12 30° 61° (ENE) 18:59:14 435.675
AIST 1 23 Nov 18:50:23 18:53:36 20° 87° (E) 18:56:50
CUBESAT XI-V 23 Nov 18:57:07 19:01:48 73° 285° (WNW) 19:06:24 437.345
CANX-2 23 Nov 18:57:33 19:00:11 16° 66° (ENE) 19:02:50 2200.000
CUTE-I 23 Nov 18:58:36 19:00:56 13° 270° (W) 19:03:16 437.470
COMPASS 1 23 Nov 19:09:19 19:11:38 15° 65° (ENE) 19:13:57 437.405
DOVE 4 23 Nov 19:13:47 19:15:55 13° 65° (ENE) 19:18:00 437.250
RS-15 23 Nov 19:17:48 19:26:22 25° 333° (NNW) 19:35:04 29.354- 29.394
PCSat 23 Nov 19:22:40 19:27:43 42° 111° (ESE) 19:32:47 145.827
CUTE 1.7 & AOD 2 23 Nov 19:31:11 19:35:00 34° 71° (ENE) 19:38:50 437.475
PHONESAT 2.4 23 Nov 19:35:46 19:39:29 71° 196° (SSW) 19:43:11 2401.200-2431.200
PRISM 23 Nov 19:36:49 19:37:23 10° 298° (WNW) 19:37:57 437.425
GOMX 1 23 Nov 19:41:15 19:45:39 35° 71° (ENE) 19:49:47 467.674
BEESAT 3 23 Nov 19:43:53 19:47:14 25° 112° (ESE) 19:50:38 437.485
UKube-1 23 Nov 19:47:05 19:49:57 18° 65° (ENE) 19:52:50 .
BRITE-PL 23 Nov 19:55:52 20:00:59 69° 75° (ENE) 20:05:43 437.365/2234.400
BEESAT 2 23 Nov 19:56:50 20:00:27 31° 114° (ESE) 20:04:09 435.950
VERMONT LUNAR 23 Nov 19:57:47 20:01:15 43° 203° (SSW) 20:04:42 437.305
Oscar 11 23 Nov 19:59:39 20:03:08 25° 69° (ENE) 20:06:38 145.826/435.025
CUBEBUG 2 23 Nov 20:00:13 20:02:33 15° 66° (ENE) 20:04:53 437.445
STRAND 1 23 Nov 20:03:20 20:07:08 21° 296° (WNW) 20:10:55 437.568
UWE-3 23 Nov 20:05:56 20:08:15 15° 65° (ENE) 20:10:32 435.000/436.395/437.385
CINEMA 3 23 Nov 20:07:07 20:10:53 28° 70° (ENE) 20:14:33 145.822/145.860
SEEDS 23 Nov 20:07:09 20:11:19 79° 76° (ENE) 20:15:32 437.485
DX 1 23 Nov 20:18:37 20:22:41 38° 71° (ENE) 20:26:45 434.975-435.025
AIST 2 23 Nov 20:19:50 20:23:24 27° 113° (ESE) 20:27:02 435.215
AIST 1 23 Nov 20:27:06 20:31:02 31° 284° (WNW) 20:35:00
AAUSAT CUBESAT 2 23 Nov 20:29:18 20:33:26 77° 258° (WSW) 20:37:37 437.432
GONETS M04 23 Nov 20:29:37 20:37:52 46° 272° (W) 20:46:02
CANX-2 23 Nov 20:31:49 20:35:47 41° 262° (W) 20:39:48 2200.000
HO-68 23 Nov 20:33:34 20:40:32 53° 259° (W) 20:47:33 435.675
VELOX 1 23 Nov 20:38:03 20:41:17 20° 66° (ENE) 20:44:31 145.980
COMPASS 1 23 Nov 20:42:59 20:46:59 45° 261° (W) 20:51:01 437.405
ZACube-1 23 Nov 20:45:07 20:48:54 32° 71° (ENE) 20:52:39 437.345
DELFI C3 23 Nov 20:47:31 20:51:33 72° 76° (ENE) 20:55:38 145.870
HUMSAT D 23 Nov 20:48:18 20:51:27 21° 68° (ENE) 20:54:35 437.325/437.525
DOVE 4 23 Nov 20:48:35 20:53:16 61° 259° (W) 20:57:41 437.250
50 SAT 23 Nov 20:54:23 20:57:22 20° 68° (ENE) 21:00:22 437.505
AISAT 23 Nov 21:01:42 21:05:46 35° 70° (ENE) 21:09:51 437.250
PCSat 23 Nov 21:06:36 21:11:14 28° 309° (NW) 21:15:55 145.827
CUTE 1.7 & AOD 2 23 Nov 21:08:06 21:11:02 18° 267° (W) 21:13:59 437.475
PHONESAT 2.4 23 Nov 21:15:06 21:17:56 21° 211° (SSW) 21:20:46 2401.200-2431.200
GOMX 1 23 Nov 21:19:56 21:23:47 23° 265° (W) 21:27:28 467.674
FUNcube-1 23 Nov 21:20:23 21:24:37 84° 77° (ENE) 21:28:49 145.935
UKube-1 23 Nov 21:21:40 21:25:47 42° 261° (W) 21:29:56 .
BEESAT 3 23 Nov 21:21:42 21:25:21 30° 309° (NW) 21:29:03 437.485
CUBEBUG 1 23 Nov 21:24:53 21:28:19 22° 67° (ENE) 21:31:44 437.445
UNISAT 6 23 Nov 21:26:28 21:28:42 14° 92° (E) 21:30:56 437.425
CUBEBUG 2 23 Nov 21:34:44 21:38:54 47° 261° (W) 21:42:59 437.445
BEESAT 2 23 Nov 21:35:19 21:38:46 25° 311° (NW) 21:42:16 435.950
Oscar 11 23 Nov 21:35:31 21:39:11 27° 264° (W) 21:42:53 145.826/435.025
NANOSAT C BR1 23 Nov 21:36:19 21:36:58 10° 90° (E) 21:37:38 145.865
RS-15 23 Nov 21:37:10 21:44:20 19° 9° (N) 21:51:38 29.354- 29.394
BRITE-PL 23 Nov 21:37:42 21:39:48 12° 269° (W) 21:41:51 437.365/2234.400
VERMONT LUNAR 23 Nov 21:38:42 21:39:09 10° 217° (SW) 21:39:36 437.305
UWE-3 23 Nov 21:40:18 21:44:25 47° 261° (W) 21:48:29 435.000/436.395/437.385
CINEMA 3 23 Nov 21:44:26 21:48:04 24° 264° (W) 21:51:37 145.822/145.860
QB50P1 23 Nov 21:44:30 21:46:37 14° 92° (E) 21:48:45 145.935-145.965
ANTELSAT 23 Nov 21:53:36 21:57:24 27° 96° (E) 22:01:15 437.575/2403.000
DX 1 23 Nov 21:56:02 21:59:03 18° 266° (W) 22:02:05 434.975-435.025
AIST 2 23 Nov 21:58:14 22:01:57 29° 310° (NW) 22:05:44 435.215
ESTCUBE 1 23 Nov 22:02:39 22:07:06 59° 74° (ENE) 22:11:36 437.505/2401.250
BUGSAT 1 23 Nov 22:07:38 22:10:40 20° 94° (E) 22:13:40 437.445
POPSAT HIP 1 23 Nov 22:07:47 22:11:18 25° 96° (E) 22:14:47 437.405
VELOX 1 23 Nov 22:13:26 22:17:36 38° 262° (W) 22:21:47 145.980
ZACube-1 23 Nov 22:22:17 22:25:21 19° 266° (W) 22:28:23 437.345
HUMSAT D 23 Nov 22:23:29 22:27:06 29° 263° (W) 22:30:43 437.325/437.525
50 SAT 23 Nov 22:28:59 22:32:31 29° 263° (W) 22:36:04 437.505
ISS 23 Nov 22:36:12 22:36:46 10° 128° (SE) 22:37:20 145.825
AISAT 23 Nov 22:39:08 22:42:29 21° 266° (W) 22:45:51 437.250
POLYITAN 1 23 Nov 22:39:17 22:43:28 60° 101° (E) 22:47:38 437.675
QB50P2 23 Nov 22:42:19 22:46:32 66° 101° (ESE) 22:50:44 145.880/145.840
TIGRISAT 23 Nov 22:49:07 22:53:31 74° 284° (WNW) 22:58:00 435.000
DUCHIFAT 1 23 Nov 22:50:01 22:54:15 80° 102° (ESE) 22:58:27 145.980
TISAT 1 23 Nov 22:56:00 23:00:10 54° 74° (ENE) 23:04:21 437.305
SPROUT 23 Nov 22:58:06 23:02:16 49° 73° (ENE) 23:06:26 437.525
CUBEBUG 1 23 Nov 23:00:28 23:04:29 33° 263° (W) 23:08:32 437.445
UNISAT 6 23 Nov 23:01:28 23:05:46 53° 286° (WNW) 23:10:09 437.425
NANOSAT C BR1 23 Nov 23:09:04 23:13:15 61° 286° (WNW) 23:17:23 145.865
AUBIESAT-1 23 Nov 23:10:33 23:13:45 23° 61° (ENE) 23:17:09 437.475
M-CUBED/EXP-1 PRIME 23 Nov 23:13:48 23:17:10 27° 63° (ENE) 23:20:49 437.505
QB50P1 23 Nov 23:18:43 23:22:47 47° 287° (WNW) 23:26:49 145.935-145.965
BEESAT 23 Nov 23:19:22 23:22:18 16° 63° (ENE) 23:25:13 436.000
ANTELSAT 23 Nov 23:30:25 23:34:07 27° 291° (WNW) 23:37:53 437.575/2403.000
ESTCUBE 1 23 Nov 23:42:22 23:44:21 13° 269° (W) 23:46:20 437.505/2401.250
BUGSAT 1 23 Nov 23:42:38 23:46:13 30° 290° (WNW) 23:49:45 437.445
POPSAT HIP 1 23 Nov 23:43:39 23:47:08 25° 291° (WNW) 23:50:36 437.405
CUSAT 1 23 Nov 23:44:13 23:48:39 65° 81° (E) 23:54:38 437.405
RS-15 23 Nov 23:50:44 00:01:05 40° 42° (NE) 00:11:45 29.354- 29.394
DANDE 23 Nov 23:59:23 00:03:40 76° 81° (E) 00:09:33 436.750
Oscar 19 24 Nov 00:04:58 00:06:41 12° 89° (E) 00:08:23 437.125/150
ISS 24 Nov 00:09:40 00:12:57 78° 323° (NW) 00:16:15 145.825
ITUPSAT 1 24 Nov 00:11:27 00:16:06 52° 72° (ENE) 00:20:47 437.325
MaSat-1 24 Nov 00:13:41 00:15:05 14° 58° (ENE) 00:16:29 437.345
POLYITAN 1 24 Nov 00:17:20 00:18:54 12° 297° (WNW) 00:20:29 437.675
QB50P2 24 Nov 00:20:44 00:21:54 11° 297° (WNW) 00:23:04 145.880/145.840
SWISSCUBE 24 Nov 00:23:13 00:28:00 76° 75° (ENE) 00:32:50 437.505
KKS-1 24 Nov 00:25:16 00:27:45 15° 64° (ENE) 00:30:15 437.445
TISAT 1 24 Nov 00:34:37 00:36:19 12° 269° (W) 00:38:02 437.305
SPROUT 24 Nov 00:36:24 00:38:37 14° 268° (W) 00:40:50 437.525
AUBIESAT-1 24 Nov 00:45:07 00:48:35 30° 260° (W) 00:52:21 437.475
M-CUBED/EXP-1 PRIME 24 Nov 00:48:57 00:52:11 25° 261° (W) 00:55:42 437.505
ITAMSAT 1 24 Nov 00:52:18 00:54:30 13° 90° (E) 00:56:40 435.822/435.867
BEESAT 24 Nov 00:54:59 00:59:40 55° 259° (W) 01:04:24 436.000
Gurwin Techsat 1B 24 Nov 01:11:25 01:12:44 11° 89° (E) 01:14:03 435.225
STARS 24 Nov 01:24:06 01:28:14 41° 72° (ENE) 01:32:23 437.465
CUSAT 1 24 Nov 01:29:31 01:31:43 13° 268° (W) 01:34:10 437.405
Oscar 19 24 Nov 01:41:24 01:46:34 78° 285° (WNW) 01:51:43 437.125/150
YUBILEINY 24 Nov 01:43:09 01:51:09 41° 87° (E) 01:59:07 435.215
ISS 24 Nov 01:47:51 01:50:02 16° 341° (NNW) 01:52:14 145.825
MaSat-1 24 Nov 01:48:54 01:49:31 11° 252° (WSW) 01:50:09 437.345
ITUPSAT 1 24 Nov 01:51:22 01:54:17 16° 268° (W) 01:57:13 437.325
KKS-1 24 Nov 01:59:37 02:03:57 52° 260° (W) 02:08:19 437.445
RS-15 24 Nov 02:03:03 02:14:08 67° 245° (WSW) 02:25:44 29.354- 29.394
SWISSCUBE 24 Nov 02:05:31 02:06:23 10° 271° (W) 02:07:16 437.505
JUGNU 24 Nov 02:17:27 02:18:03 10° 182° (S) 02:18:40 437.505
ITAMSAT 1 24 Nov 02:29:19 02:34:30 72° 286° (WNW) 02:39:38 435.822/435.867
Gurwin Techsat 1B 24 Nov 02:47:59 02:53:19 84° 285° (WNW) 02:58:37 435.225
MOZHAYETS 4 24 Nov 02:49:58 02:52:21 14° 63° (ENE) 02:54:44
STARS 24 Nov 03:02:02 03:04:54 17° 267° (W) 03:07:46 437.465
HORYU 2 24 Nov 03:07:28 03:11:58 72° 102° (ESE) 03:16:27 437.375
ISS 24 Nov 03:27:04 03:27:47 11° 2° (N) 03:28:29 145.825
AO-7 24 Nov 03:28:53 03:36:36 39° 99° (E) 03:44:16 29.400- 29.500
YUBILEINY 24 Nov 03:39:35 03:47:49 43° 286° (WNW) 03:56:05 435.215
JAS-2 24 Nov 03:46:37 03:50:48 17° 86° (E) 03:54:44 435.910
SO-50 24 Nov 04:03:35 04:08:05 87° 302° (WNW) 04:12:45 436.795
BEESAT 3 24 Nov 04:04:49 04:07:27 16° 44° (NE) 04:10:03 437.485
PCSat 24 Nov 04:11:22 04:16:08 30° 51° (NE) 04:20:51 145.827
BEESAT 2 24 Nov 04:18:07 04:21:10 19° 46° (NE) 04:24:10 435.950
RS-15 24 Nov 04:20:16 04:24:19 13° 264° (W) 04:28:27 29.354- 29.394
MOZHAYETS 4 24 Nov 04:24:32 04:29:03 59° 260° (W) 04:33:37
CUBESAT XI-V 24 Nov 04:26:26 04:27:31 11° 61° (ENE) 04:28:36 437.345
Gurwin Techsat 1B 24 Nov 04:31:04 04:32:25 11° 302° (WNW) 04:33:46 435.225
AIST 2 24 Nov 04:42:47 04:45:46 18° 45° (NE) 04:48:43 435.215
HORYU 2 24 Nov 04:46:37 04:48:01 11° 298° (WNW) 04:49:26 437.375
PRISM 24 Nov 04:48:18 04:52:20 47° 72° (ENE) 04:56:24 437.425
Cubesat XI-IV 24 Nov 04:53:24 04:55:41 13° 90° (E) 04:57:57 437.490
ISS 24 Nov 05:02:59 05:05:27 19° 22° (NNE) 05:07:55 145.825
AO-7 24 Nov 05:21:34 05:29:25 47° 297° (WNW) 05:37:15 29.400- 29.500
O/OREOS (USA 219) 24 Nov 05:24:51 05:28:46 30° 104° (ESE) 05:32:41 437.305
JAS-2 24 Nov 05:29:34 05:36:48 79° 286° (WNW) 05:43:07 435.910
CUTE-I 24 Nov 05:33:28 05:38:11 31° 96° (E) 05:42:51 437.470
STRAND 1 24 Nov 05:38:21 05:43:25 61° 73° (ENE) 05:48:29 437.568
BEESAT 3 24 Nov 05:41:55 05:46:03 59° 242° (WSW) 05:50:08 437.485
SO-50 24 Nov 05:47:06 05:49:22 13° 321° (NW) 05:51:40 436.795
PCSat 24 Nov 05:54:36 05:59:37 39° 249° (WSW) 06:04:35 145.827
BEESAT 2 24 Nov 05:55:39 05:59:42 46° 244° (WSW) 06:03:41 435.950
CUBESAT XI-V 24 Nov 05:59:31 06:04:14 83° 257° (WSW) 06:09:00 437.345
AIST 2 24 Nov 06:20:31 06:24:43 53° 243° (WSW) 06:28:51 435.215
PRISM 24 Nov 06:26:03 06:28:09 14° 268° (W) 06:30:15 437.425
Cubesat XI-IV 24 Nov 06:30:59 06:36:19 75° 286° (WNW) 06:41:36 437.490
AIST 1 24 Nov 06:34:50 06:39:10 56° 80° (E) 06:43:26
ISS 24 Nov 06:39:07 06:42:25 74° 219° (SW) 06:45:42 145.825
O/OREOS (USA 219) 24 Nov 07:04:27 07:08:09 25° 300° (WNW) 07:11:51 437.305
CUTE-I 24 Nov 07:13:32 07:18:11 32° 293° (WNW) 07:22:48 437.470
JAS-2 24 Nov 07:16:51 07:20:28 15° 306° (NW) 07:23:55 435.910
STRAND 1 24 Nov 07:20:02 07:22:59 15° 269° (W) 07:25:56 437.568
GONETS M04 24 Nov 07:32:41 07:40:51 45° 88° (E) 07:49:04
